Regional Weather Roundup
Issued by NWS Nashville, TN

Home | Current Version | Previous Version | Text Only | Print | Product List | Glossary On
Versions: 1 2 3 4 5 6 7 8 9 10 11 12 13 14 15 16 17 18 19 20 21 22 23 24 25 26 27
000
ASUS44 KOHX 230410
RWROHX
MIDDLE TENNESSEE HOURLY WEATHER ROUNDUP
NATIONAL WEATHER SERVICE NASHVILLE TN
1000 PM CST WED NOV 22 2017

NOTE: "FAIR" INDICATES FEW OR NO CLOUDS BELOW 12,000 FEET WITH
NO SIGNIFICANT WEATHER AND/OR OBSTRUCTIONS TO VISIBILITY.

* THESE REPORTS ARE NOT UNDER NWS QUALITY CONTROL AND MAY NOT
  REPORT WEATHER SUCH AS PRECIPITATION AND FOG.


TNZ005>011-023>034-057-059-062>066-078-080-230500
...NORTHERN MIDDLE TENNESSEE...

CITY           SKY/WX    TMP DP  RH WIND       PRES   REMARKS
CLARKSVILLE    CLOUDY    30  21  69 CALM      30.27S
CROSSVILLE     CLEAR     31  23  72 NE5       30.18R WCI  26
GALLATIN       CLEAR     34  23  64 N3        30.27R
DICKSON          N/A     32  21  64 N7        30.24S WCI  26
LEBANON        CLEAR     28  24  85 CALM      30.23R
NASHVILLE      CLEAR     36  24  62 N6        30.25R WCI  31
PORTLAND       CLEAR     30  25  80 CALM      30.24S
SMYRNA         CLEAR     32  25  75 N6        30.26R WCI  26
SPARTA         CLEAR     27  23  86 CALM      30.20R
SPRINGFIELD    CLEAR     32  23  69 N5        30.24R WCI  27
WEST NASHVILLE CLEAR     34  25  69 N7        30.24R WCI  28
$$
TNZ056-058-060-061-075>077-079-093>097-230500
...SOUTHERN MIDDLE TENNESSEE...

CITY           SKY/WX    TMP DP  RH WIND       PRES   REMARKS
COLUMBIA       CLEAR     30  23  74 CALM      30.22R
FAYETTEVILLE   CLEAR     36  25  64 N5        30.19S WCI  32
MCMINNVILLE    CLEAR     28  25  86 CALM      30.20S
MURFREESBORO   CLEAR     33  25  73 CALM      30.23R
PULASKI        CLEAR     30  27  86 NW3       30.22S
SHELBYVILLE    CLEAR     32  25  74 N5        30.22R WCI  27
TULLAHOMA      CLEAR     34  25  69 N3        30.19S
WINCHESTER     CLEAR     28  25  86 CALM      30.19F
$$


...KEY TO REMARKS...
VSB - VISIBILITY IN MILES
WCI - WIND CHILL INDEX
HX  - HEAT INDEX





USA.gov is the U.S. government's official web portal to all federal, state and local government web resources and services.